📊 Raw Sensor Data

Showing records 34651 to 34675 of 84,861 total

ID Distance (ft) Battery V Battery A Int Temp (°F) Int Humid (%) Ext Temp (°F) Solar V RSSI SNR Time Stamp
50223 15.4 3.99 0 107 46 96 5.10 -71 8 08/25/2025 04:45 PM
50222 15.4 3.71 0 107 45 99 5.10 -71 7 08/25/2025 04:30 PM
50221 15.3 3.71 0 106 46 94 5.10 -71 8 08/25/2025 04:15 PM
50220 15.3 3.71 0 107 45 96 5.10 -70 8 08/25/2025 04:00 PM
50219 15.3 4.01 0 107 44 97 5.10 -70 8 08/25/2025 03:45 PM
50218 15.4 3.71 0 107 43 96 5.20 -70 8 08/25/2025 03:30 PM
50217 15.3 3.71 0 106 42 95 5.10 -71 8 08/25/2025 03:15 PM
50216 15.0 3.71 0 105 42 93 5.10 -71 7 08/25/2025 03:00 PM
50215 15.4 4.02 0 103 42 92 5.10 -71 7 08/25/2025 02:45 PM
50214 15.3 3.71 0 103 41 91 5.20 -70 8 08/25/2025 02:30 PM
50213 15.3 3.71 0 101 42 92 5.10 -70 8 08/25/2025 02:15 PM
50212 14.8 3.78 0 100 41 89 5.20 -70 8 08/25/2025 02:00 PM
50211 15.3 3.71 0 98 42 89 5.10 -71 8 08/25/2025 01:45 PM
50210 15.4 4.03 0 97 41 90 5.10 -70 7 08/25/2025 01:30 PM
50209 15.3 3.71 0 96 42 87 5.10 -71 7 08/25/2025 01:15 PM
50208 15.4 3.71 0 94 42 87 5.10 -71 7 08/25/2025 01:00 PM
50207 15.4 3.71 0 93 42 86 5.10 -71 8 08/25/2025 12:45 PM
50206 15.4 3.71 0 91 42 84 5.10 -71 7 08/25/2025 12:30 PM
50205 15.4 3.71 0 90 42 84 5.10 -71 8 08/25/2025 12:15 PM
50204 15.3 3.72 0 89 42 84 5.10 -70 8 08/25/2025 12:00 PM
50203 15.5 3.72 0 88 41 84 5.10 -71 7 08/25/2025 11:45 AM
50202 15.4 3.72 0 86 41 84 5.10 -65 7 08/25/2025 11:30 AM
50201 15.5 3.72 0 84 42 84 5.10 -66 8 08/25/2025 11:15 AM
50200 15.5 3.72 0 82 42 80 5.10 -66 8 08/25/2025 11:00 AM
50199 15.4 4.05 0 81 42 79 5.10 -66 8 08/25/2025 10:45 AM